Weather in Livani

Latvia     56°21′27″N   26°10′39″E
temp.,
°C
wind,
m/s
gust,
m/s
humid.,
%
clouds,
%
prec.,
mm/h
press.,
hPa
HPBL,
m
22 april, thu
thu2200:00+6wsw31080100 0.0 1005234
03:00+5sw398365 0.0 1006256
06:00+4sw31088100 0.0 1006348
09:00+5wsw4779100 0.0 1007655
12:00+4ssw3691100 1.2 1008520
15:00+9ssw5949100 1.4 10072066
18:00+9sw49537 0.1 10061768
21:00+4sw49785 0.3 1007500
23 april, fri
fri2300:00+2sw4108418 0.0 1007701
03:00+3sw51071100 0.0 10071173
06:00+1ssw51096100 0.1 1006817
09:00+2sw51196100 0.7 1006783
12:00+2wsw4893100 0.9 1009701
15:00+6w5865100 1.8 10101626
18:00+5wnw4877100 1.2 10111153
21:00+1w259292 1.5 1012140
24 april, sat
sat2400:00+1wsw3989100 0.1 1012523
03:000sw41197100 0.2 1010765
06:00+1w41097100 0.9 1010830
09:00+2w51196100 1.2 1011815
12:00+4wnw61073100 0.4 10111476
15:00+5w61175100 1.3 10111513
18:00+4w6117999 0.7 10111259
21:00+2w41095100 0.9 1011833
25 april, sun
sun2500:00+1wnw4994100 0.2 1011895
03:00+1w51097100 0.6 1010759
06:000w51096100 0.3 1010835
09:00+1wnw51196100 0.9 1010746
12:00+2wnw51089100 0.6 10111022
15:00+4wnw6107499 1.1 10111459
18:00+3wnw5107786 0.6 10121272
21:000wnw4108793 0.7 1013772
26 april, mon
mon2600:00−1w3109415 0.0 1014484
03:00−2w399597 0.0 1014390
06:00−2wsw3989100 0.0 1014462
09:00+2wsw477370 0.0 1013749
12:00+3w4672100 0.4 10131271
15:00+6w456095 0.7 10131553
18:00+6wnw355970 0.1 10121343
21:00+1wnw238562 0.2 101341